Miscellaneous Local Product
Issued by NWS North Platte, NE

Home | Current Version | Previous Version | Text Only | Print | Product List | Glossary On
Versions: 1 2 3 4 5 6 7 8 9 10 11 12 13 14 15 16 17 18 19 20 21 22 23 24 25 26 27 28 29 30 31 32 33 34 35 36 37 38 39 40 41 42 43 44 45 46 47 48 49 50
000
AXUS43 KLBF 191310
MISLBF


WESTERN AND NORTH CENTRAL NEBRASKA HOURLY WEATHER ROUNDUP
NATIONAL WEATHER SERVICE NORTH PLATTE NE
700 AM CST FRI DEC 19 2014

***STATIONS NOT REPORTING VARIABLES SUCH AS SKY/WEATHER OR
PRESSURE ARE PROVIDED BY THE NEBRASKA DEPARTMENT OF
ROADS...RAWS...AND APRS NETWORKS...AND ARE NOT UNDER
NATIONAL WEATHER SERVICE QUALITY CONTROL***

...OBSERVATIONS IN AND NEAR THE EASTERN PANHANDLE OF NEBRASKA...

CITY           SKY/WX    TMP DP  RH WIND       PRES   REMARKS
PINE RIDGE     PTCLDY    20  13  74 SW7       30.02R WCI  11
CHADRON        CLEAR     11   7  84 SW8       30.04R WCI  -1
ALLIANCE       PTCLDY     2  -1  88 W9        30.04S WCI -13
SIDNEY         CLEAR     15  10  80 W7        30.07R WCI   5
WHITECLAY        N/A     14   9  81 SE6         N/A  WCI   5
CRESCENT LAKE    N/A     15  11  85 CALM        N/A
LISCO            N/A      8   2  77 CALM        N/A
BIG SPRINGS      N/A     14  11  90 CALM        N/A
$$

...OBSERVATIONS IN NORTH CENTRAL NEBRASKA...

CITY           SKY/WX    TMP DP  RH WIND       PRES   REMARKS
VALENTINE      PTCLDY    13   9  84 SW7       30.04R WCI   3
THEDFORD       PTCLDY    14  12  91 W3        30.05S
AINSWORTH      PTCLDY    15  13  92 SW5       30.04S WCI   7
O`NEILL        FOG       26  26 100 S8        30.09S VSB 1/2 WCI  18
BROKEN BOW     CLOUDY    24  23  96 SW7       30.09R FOG     WCI  16
BROWNLEE         N/A     15  13  90 CALM        N/A
SPRINGVIEW       N/A      5   2  88 CALM        N/A
BREWSTER         N/A     13  12  93 CALM        N/A
ROSE             N/A     21  21 100 MISG        N/A
SARGENT          N/A     24  23  96 CALM        N/A
COMSTOCK         N/A     30  30 100 SW7         N/A  WCI  23
CHAMBERS         N/A     25  25  98 CALM        N/A
$$

...OBSERVATIONS IN SOUTHWEST NEBRASKA AND FAR NORTHEAST COLORADO...

CITY           SKY/WX    TMP DP  RH WIND       PRES   REMARKS
WRAY           CLOUDY    20  17  86 SW7       30.10R WCI  11
IMPERIAL       CLEAR     18  13  80 W5        30.09R WCI  11
OGALLALA       PTCLDY    12  10  91 W5        30.08S WCI   4
NORTH PLATTE   PTCLDY    13   7  77 CALM      30.09R
MCCOOK         CLEAR     14  12  92 SW6       30.12S WCI   5
LEXINGTON      FOG       26  25  96 W6        30.11S VSB 3/4 WCI  19
PAXTON           N/A     17  14  89 CALM        N/A
BRADY            N/A     16  14  90 CALM        N/A
GOTHENBURG       N/A     22  21  95 SW3         N/A
CALLAWAY         N/A     16  14  93 CALM        N/A
$$

...NORTH PLATTE AREA...

CITY           SKY/WX    TMP DP  RH WIND       PRES   REMARKS
AIRPORT        PTCLDY    13   7  77 CALM      30.09R
DOWNTOWN         N/A     14  12  90 CALM        N/A
$$

...SOME WEATHER OBSERVATIONS FROM AROUND THE REGION...

CITY           SKY/WX    TMP DP  RH WIND       PRES   REMARKS
DENVER         PTCLDY    23  20  88 SW8       30.07R WCI  14
LARAMIE        PTCLDY    17  11  77 SW15      30.04F WCI   2
CHEYENNE       CLEAR     21  11  65 SE8       30.04R WCI  11
SCOTTSBLUFF    PTCLDY     4   3  96 NW6       30.06S WCI  -7
RAPID CITY     PTCLDY    26  16  65 W3        29.98R
PIERRE         FOG       13  10  88 CALM      30.01F VSB 1/4
WINNER         FAIR      20  14  77 SW5       30.03S WCI  13
SIOUX FALLS    CLOUDY    29  25  85 S12       30.14F WCI  19
OMAHA          CLOUDY    31  28  89 S6        30.23S FOG     WCI  25
GRAND ISLAND   CLOUDY    31  27  85 SW7       30.14F WCI  24
KANSAS CITY    CLOUDY    30  29  96 CALM      30.24S FOG
WICHITA        CLOUDY    32  28  85 E5        30.22R WCI  27
HAYS           CLOUDY    34  25  69 CALM      30.15S
LIBERAL        CLOUDY    36  32  87 S3        30.14S
GOODLAND       CLEAR     25  21  85 W8        30.09R WCI  16
$$



USA.gov is the U.S. government's official web portal to all federal, state and local government web resources and services.